FW8918 Weather Reports


time (UTC)temp
C
wind
direction
speed
KPH
gust
KPH
rain 1hr
cm
rain 24hr
cm
rain mn
cm
humidity
%
barometer
mb
20260901174534 16 334 3.2 16.1 0.00 0.18 0.18 88 1016.1
20260901173035 16 265 8.0 17.7 0.00 0.18 0.18 88 1015.9
20260901171537 16 272 6.4 14.5 0.13 0.18 0.18 91 1015.8
20260901170041 16 307 6.4 14.5 0.13 0.18 0.18 90 1015.6
20260901164535 16 270 6.4 16.1 0.13 0.18 0.18 91 1015.6
20260901163042 16 295 1.6 20.9 0.10 0.18 0.18 88 1015.3
20260901161538 17 252 6.4 14.5 0.00 0.05 0.05 83 1015.2
20260901160041 18 275 6.4 14.5 0.00 0.05 0.05 80 1015.2
20260901154535 18 273 8.0 16.1 0.00 0.05 0.05 79 1015.0
20260901153033 18 285 9.7 19.3 0.00 0.05 0.05 79 1015.0
20260901151541 18 295 9.7 16.1 0.00 0.05 0.05 79 1015.0
20260901150041 18 314 6.4 16.1 0.00 0.05 0.05 80 1015.0
20260901144540 18 292 6.4 19.3 0.00 0.05 0.05 77 1014.8
20260901143038 18 209 6.4 17.7 0.00 0.05 0.05 75 1014.7
20260901141533 18 288 8.0 14.5 0.00 0.05 0.05 76 1014.6
20260901140058 18 306 8.0 20.9 0.00 0.05 0.05 78 1014.6
20260901134536 18 288 8.0 16.1 0.00 0.05 0.05 79 1014.7
20260901133036 18 269 8.0 17.7 0.00 0.05 0.05 80 1014.5
20260901131540 18 225 4.8 20.9 0.00 0.05 0.05 84 1014.5
20260901130038 17 262 6.4 16.1 0.00 0.05 0.05 88 1014.3
20260901124534 17 240 8.0 17.7 0.00 0.69 0.03 85 1014.5
20260901123037 18 297 8.0 16.1 0.00 0.69 0.03 83 1014.3
20260901121533 18 305 4.8 16.1 0.00 0.69 0.03 85 1014.1
20260901120034 17 260 8.0 19.3 0.00 0.69 0.03 87 1014.1
20260901114535 18 252 11.3 20.9 0.00 0.69 0.03 84 1014.0
20260901113036 18 254 9.7 20.9 0.00 0.69 0.03 79 1014.0
20260901111536 18 275 11.3 25.7 0.00 0.69 0.03 79 1013.9
20260901110036 18 250 12.9 25.7 0.00 0.69 0.03 81 1014.0
20260901104533 18 244 11.3 24.1 0.00 1.02 0.03 83 1013.8
20260901103035 17 297 8.0 17.7 0.00 1.02 0.03 84 1013.7
20260901101554 17 338 8.0 19.3 0.00 1.02 0.03 86 1013.6
20260901100046 17 302 4.8 19.3 0.00 1.02 0.03 87 1013.5
20260901094542 16 232 8.0 19.3 0.00 1.02 0.03 88 1013.5
20260901093038 17 243 11.3 22.5 0.00 1.02 0.03 86 1013.3
20260901091549 17 148 6.4 20.9 0.00 1.02 0.03 85 1013.2
20260901090037 17 225 8.0 16.1 0.00 1.02 0.03 86 1013.1
20260901084539 17 251 6.4 16.1 0.00 1.02 0.03 87 1013.1
20260901083042 17 231 6.4 16.1 0.00 1.02 0.03 89 1012.8
20260901081534 16 276 6.4 14.5 0.00 1.02 0.03 91 1012.7
20260901080123 16 308 6.4 16.1 0.00 1.02 0.03 89 1012.6
20260901074534 17 287 4.8 11.3 0.00 1.07 0.00 87 1012.5
20260901073036 17 300 4.8 11.3 0.00 1.07 0.00 89 1012.3
20260901071538 16 285 0.0 11.3 0.00 1.07 0.00 91 1012.2
20260901070038 16 261 1.6 8.0 0.00 1.07 0.00 91 1012.0
20260901064534 16 0 0.0 9.7 0.00 1.27 0.00 91 1012.0
20260901063051 16 0 0.0 6.4 0.00 1.27 0.00 91 1011.8
20260901061537 16 266 0.0 1.6 0.00 1.27 0.00 91 1011.6
20260901060038 16 252 3.2 8.0 0.00 1.27 0.00 91 1011.5
20260901054541 16 0 0.0 0.0 0.00 1.27 0.00 92 1011.3
20260901053039 16 0 0.0 0.0 0.00 1.27 0.00 92 1011.3
20260901051539 15 0 0.0 0.0 0.00 1.27 0.00 92 1011.2
20260901050037 15 0 0.0 0.0 0.00 1.27 0.00 92 1011.2
20260901044540 15 276 0.0 3.2 0.00 1.30 0.00 92 1011.1
20260901043037 15 283 1.6 4.8 0.00 1.30 0.00 92 1011.0
20260901041536 15 287 0.0 4.8 0.00 1.30 0.00 92 1010.8
20260901040046 15 250 1.6 8.0 0.00 1.30 0.00 92 1010.8
20260901034535 15 299 1.6 4.8 0.00 1.32 0.00 92 1010.9
20260901033038 15 304 3.2 8.0 0.00 1.32 0.00 92 1010.7
20260901031537 16 285 1.6 6.4 0.00 1.32 0.00 93 1010.7
20260901030038 16 335 1.6 4.8 0.00 1.32 0.00 93 1010.5
20260901024547 15 297 1.6 6.4 0.00 1.32 0.00 93 1010.5
20260901023039 15 247 3.2 8.0 0.00 1.32 0.00 92 1010.5
20260901021536 15 301 1.6 6.4 0.00 1.30 0.00 92 1010.4
20260901020038 15 295 3.2 9.7 0.00 1.30 0.00 92 1010.3
20260901014539 15 288 1.6 8.0 0.00 1.30 0.00 93 1010.3
20260901013036 15 285 3.2 9.7 0.00 1.30 0.00 93 1010.3
20260901011536 16 276 1.6 9.7 0.00 1.30 0.00 93 1010.2
20260901010039 15 274 3.2 8.0 0.00 1.30 0.00 93 1010.1
20260901004537 15 283 3.2 6.4 0.00 1.30 0.00 93 1010.0
20260901003037 15 264 3.2 6.4 0.00 1.30 0.00 93 1009.9
20260901001538 15 304 1.6 12.9 0.00 1.30 0.00 93 1009.8
20260901000039 15 262 1.6 6.4 0.00 1.30 0.00 93 1009.8
20260831234536 15 299 1.6 8.0 0.00 1.30 0.00 93 1009.8
20260831233033 15 240 3.2 8.0 0.00 1.30 0.00 93 1009.7
20260831231550 15 293 4.8 11.3 0.00 1.30 0.00 93 1009.6
20260831230038 15 286 3.2 8.0 0.00 1.30 0.00 93 1009.4
20260831224550 15 276 0.0 6.4 0.00 1.30 0.00 93 1009.4
20260831223035 16 335 0.0 6.4 0.00 1.30 0.00 92 1009.3
20260831221548 16 282 4.8 11.3 0.00 1.30 0.00 93 1009.3
20260831220039 16 290 3.2 11.3 0.00 1.30 0.00 93 1009.1
20260831214543 16 271 3.2 6.4 0.00 1.30 1.30 92 1009.0
20260831213034 16 267 4.8 11.3 0.00 1.30 1.30 92 1008.8
20260831211541 16 274 3.2 11.3 0.00 1.30 1.30 92 1008.7
20260831210035 16 229 3.2 8.0 0.00 1.30 1.30 92 1008.6
20260831204535 16 287 4.8 11.3 0.00 1.30 1.30 92 1008.5
20260831203040 16 0 0.0 4.8 0.00 1.30 1.30 92 1008.3
20260831201535 16 235 1.6 11.3 0.00 1.30 1.30 92 1008.3
20260831200036 16 277 1.6 9.7 0.00 1.30 1.30 92 1008.1
20260831194548 16 238 4.8 11.3 0.00 1.30 1.30 92 1008.1
20260831193046 17 257 3.2 6.4 0.00 1.30 1.30 92 1007.9
20260831191544 17 0 0.0 8.0 0.00 1.30 1.30 92 1007.9
20260831190036 17 236 3.2 8.0 0.00 1.30 1.30 91 1007.9
20260831184537 17 271 1.6 8.0 0.00 1.30 1.30 90 1007.7
20260831183037 17 239 3.2 9.7 0.00 1.30 1.30 90 1007.5
20260831181533 17 306 3.2 9.7 0.00 1.30 1.30 90 1007.4
20260831180040 17 230 4.8 12.9 0.00 1.30 1.30 88 1007.1